Regional Weather Roundup
Issued by NWS Upton, NY

Current Version | Previous Version | Graphics & Text | Print | Product List | Glossary Off
Versions: 1 2 3 4 5 6 7 8 9 10 11 12 13 14 15 16 17 18 19 20 21 22 23 24 25 26 27

000
ASUS41 KOKX 151108
RWROKX

REGIONAL WEATHER ROUNDUP
NATIONAL WEATHER SERVICE NEW YORK NY
600 AM EST FRI DEC 15 2017

NOTE: "FAIR" INDICATES FEW OR NO CLOUDS BELOW 12,000 FEET WITH NO
SIGNIFICANT WEATHER AND/OR OBSTRUCTIONS TO VISIBILITY.

NYZ071-072-176-178-NJZ106-104-151200-
NEW YORK CITY METRO AREA

CITY           SKY/WX    TMP DP  RH WIND       PRES   REMARKS
Central Park   CLEAR     20   8  60 CALM      30.11S
Bronx Bot Gard   N/A     21   9  58 SW3       30.10F
Bronx Lehman C NOT AVBL
LaGuardia APRT MOCLDY    23   8  52 N5        30.10R WCI  17
Queens College NOT AVBL
Kennedy INTL   MOCLDY    20   8  60 NW5       30.12S WCI  13
Breezy Point     N/A    N/A N/A N/A NW6         N/A
Brooklyn Coll  NOT AVBL
Staten Island  NOT AVBL
Newark/Liberty MOCLDY    20   7  57 SW5       30.11S WCI  13
Teterboro      CLEAR     15   7  70 SW5       30.10S WCI   8
$$

NYZ177-179-078>081-151200-
LONG ISLAND NEW YORK

CITY           SKY/WX    TMP DP  RH WIND       PRES   REMARKS
Jones Beach      N/A    N/A N/A N/A N5          N/A
Wantagh        NOT AVBL
Matinecock PT    N/A    N/A N/A N/A NW6         N/A
Farmingdale    PTCLDY    16   7  67 CALM      30.10R
MacArthur/ISP  PTCLDY    13   6  74 CALM      30.09S
Shirley        CLEAR     13   8  81 CALM      30.10S
Mt Sinai Harb    N/A    N/A N/A N/A S2          N/A
Westhampton    CLEAR      4  -1  80 CALM      30.12R
East Hampton   FAIR      11   8  85 CALM      30.10R
Southold       NOT AVBL
Montauk          N/A     25  13  60 NW9       30.11S WCI  15
$$

NYZ052-065-067-151200-
HUDSON VALLEY

CITY           SKY/WX    TMP DP  RH WIND       PRES   REMARKS
White Plains   PTCLDY    15   7  70 NW5       30.06R WCI   8
Larchmont Harb   N/A    N/A N/A N/A SW3         N/A
Croton On Huds   N/A    N/A N/A N/A NE2         N/A
Somers         NOT AVBL
Brewster       NOT AVBL
Newburgh       CLEAR     12   7  79 CALM      30.07R
Montgomery     CLOUDY    11   5  77 SE5       30.05S WCI   3
Otisville      NOT AVBL
Warwick        NOT AVBL
Suffern        NOT AVBL
Poughkeepsie   CLOUDY    10   5  80 CALM      30.08S
Albany         CLOUDY     9   5  84 S3        30.07S
$$

NJZ001-105-106-008-010-013-015-019>022-104-151200-
NEW JERSEY

CITY           SKY/WX    TMP DP  RH WIND       PRES   REMARKS
Newark/Liberty MOCLDY    20   7  57 SW5       30.11S WCI  13
Teterboro      CLEAR     15   7  70 SW5       30.10S WCI   8
Caldwell       CLEAR     13   8  81 CALM      30.10S
Somerville     PTCLDY     8   5  87 CALM      30.10S
Linden         FAIR      19   7  58 CALM      30.12S
Perth Amboy      N/A    N/A N/A N/A W5          N/A
Sussex         CLOUDY     6   3  87 CALM      30.05F
Andover        NOT AVBL
Trenton        PTCLDY    18   8  65 SW5       30.11S WCI  11
Millville      PTCLDY    23  17  78 CALM      30.13F
Atlantic City  PTCLDY    21  13  71 CALM      30.13S
Wrightstown    CLOUDY    19  11  70 SW3       30.09S
Toms River     CLOUDY    17  10  74 NW3       30.13S
Belmar         MOCLDY    19   8  62 W3        30.12S
$$

PAZ047>061-062-071-151200-
EASTERN PENNSYLVANIA

CITY           SKY/WX    TMP DP  RH WIND       PRES   REMARKS
Philadelphia   CLOUDY    25  11  55 CALM      30.13S
Allentown      CLOUDY    10   4  76 CALM      30.09R
Scranton       CLOUDY     9   5  84 CALM      30.02R
$$

CTZ002-004>006-009-010-012-RIZ004-006-007-MAZ004-011-015-151200-
SOUTHERN NEW ENGLAND
 IN CT

CITY           SKY/WX    TMP DP  RH WIND       PRES   REMARKS
Bradley INTL   MOCLDY    11   7  84 CALM      30.08S
Hartford       CLOUDY    14   5  67 S3        30.10S
Danbury        CLOUDY    11   5  77 CALM      30.07R
Wtrbury/Oxford CLOUDY     8   3  80 CALM      30.04R
Norwalk Harbor   N/A    N/A N/A N/A W7          N/A
Bridgeport     CLEAR     17   6  62 CALM      30.11R
Meriden        CLEAR      6   2  83 CALM      30.10R
New Haven      CLEAR     19   5  54 NW6       30.10R WCI  11
Chester        FAIR      12   3  67 CALM      30.06S
Groton         CLEAR     16   5  62 CALM      30.10R
Wilimantic     PTCLDY     8   4  83 CALM      30.09R

 IN RI

CITY           SKY/WX    TMP DP  RH WIND       PRES   REMARKS
Providence     PTCLDY    12   7  80 S8        30.09R WCI   0
Block Island   CLEAR     20  12  71 NW6         N/A  WCI  12
Westerly       CLEAR     16   6  65 CALM      30.10R
 IN MA

CITY           SKY/WX    TMP DP  RH WIND       PRES   REMARKS
Boston         CLOUDY    19   7  59 W9        30.06S WCI   8
Worcester      CLOUDY    13   5  70 W16       29.97S WCI  -3
Westfield      CLOUDY    12   8  84 CALM      30.07R
Provincetown   PTCLDY    21  14  74 W9        30.08R WCI  11
Nantucket      CLEAR     22  11  62 NW8       30.08R WCI  12
$$

ANZ330-335-338-340-345-350-353-355-151200-
COASTAL MARINE OBSERVATIONS


STATION/POSITION TIME  SKY/WX   TEMP    WIND        PRES    VSBY  WAVE
                                AIR SEA DIR/SP/G                  HT/PER
                 (UTC)          (F)     (DEG/KT/KT) (MB)    (MI)  (FT/S)
NY HARB ENTRANCE 0950            27 50  340/  8/ 12 1019.0          2/ 8
20 S FIRE ISLAND 0950            28 51  350/  8/ 12 1019.3          3/ 8
GREAT SOUTH BAY  NOT AVBL
HUDSON CANYON    0950            34 55  330/  6/ 10 1018.9          4/ 6
KINGS POINT      1024            22 41   20/  7/  9 1020.3
EXECUTION ROCKS  1045            23     310/  4/ 10   N/A
WESTERN LI SOUND NOT AVBL
CENTRAL LI SOUND 1045            25     350/  8/ 12   N/A           1
ROBBINS REEF     1042            22     290/  3/  5 1020.3
$$


>>>>>>>>>>>>>>>>>>>>>>>>>>>> KEY <<<<<<<<<<<<<<<<<<<<<<<<<<<
>                                                          <
>     SKY/WX - Sky Condition/Present Weather               <
>     TMP    - Temperature in Fahrenheit                   <
>     DP     - Dew Point in Fahrenheit                     <
>     RH     - Relative Humidity in Percent                <
>     WIND   - Direction (from) and Speed in MPH           <
>     PRES   - Mean Sea Level Pressure (inches of Hg)      <
>     WCI    - Wind Chill Index                            <
>     VSB    - VISIBILITY IN MILES                         <
>     HX     - HEAT INDEX                                  <
>     TC     - TEMPERATURE IN CELSIUS                      <
>     VRB    - VARIABLE WIND DIRECTION                     <
>                                                          <
>>>>>>>>>>>>>>>>>>>>>>>>>>>> KEY <<<<<<<<<<<<<<<<<<<<<<<<<<<




USA.gov is the U.S. government's official web portal to all federal, state and local government web resources and services.